Torna al catalogo

STARLINK-31507

AttivoComunicazioniVLEO
NORAD 59401·PAYLOAD·🇺🇸 United States

Lanciato Apr 5, 2024 da Cape Canaveral Space Force Station

Loading…

Prossimi Passaggi (prossime 24 ore)

TLE

AggiornatoSource: CelesTrak SupGP

Epoca: Sep 14, 2026, 21:16 UTC

1 59401C 24064D   26257.88659722  .00055098  00000+0  19964-2 0  2578
2 59401  43.0001  67.5520 0001387 270.0939  50.5715 15.27539013    13

Traccia STARLINK-31507 in tempo reale con AllMySat

Download on the App Store